Location: Unspecified
(0.0000°N, 0.0000°E)
Time: 10:28:17
(UTC+00:00)

Explorer 11/Cluster Stage 4 - Visible Passes

Search period start: 21 January 2018 00:00
Search period end: 31 January 2018 00:00
Orbit: 467 x 1262 km, 28.8° (Epoch: 20 January)

Date Brightness Start Highest point End Pass type
(mag) Time Alt. Az. Time Alt. Az. Time Alt. Az.
23 Jan 9.0 20:43:42 10° SW 20:43:52 11° SW 20:43:52 11° SW visible
24 Jan 8.4 18:47:22 10° S 18:48:30 11° SSE 18:49:36 10° SE visible
24 Jan 8.5 20:33:17 10° SW 20:34:23 17° SW 20:34:23 17° SW visible
25 Jan 9.2 05:43:57 10° N 05:46:21 12° NNE 05:48:53 10° NE visible
25 Jan 8.2 18:35:43 10° SSW 18:38:26 15° SSE 18:40:54 10° ESE visible
25 Jan 7.9 20:22:54 10° WSW 20:24:56 26° SW 20:24:56 26° SW visible
26 Jan 9.0 05:33:03 10° N 05:36:05 14° NNE 05:39:23 10° ENE visible
26 Jan 7.2 20:12:34 10° WSW 20:15:30 38° WSW 20:15:30 38° WSW visible
27 Jan 8.9 05:22:20 10° N 05:25:49 16° NNE 05:29:40 10° ENE visible
27 Jan 6.7 20:02:17 10° WSW 20:06:07 48° WNW 20:06:07 48° WNW visible
28 Jan 8.8 05:11:44 10° N 05:15:31 18° NNE 05:19:50 10° ENE visible
28 Jan 6.7 19:52:02 10° WSW 19:56:39 43° NNW 19:56:45 43° NNW visible
29 Jan 8.6 05:01:12 10° NNW 05:05:13 20° NNE 05:09:53 10° ENE visible
29 Jan 7.1 19:41:50 10° W 19:46:26 34° NNW 19:47:24 31° N visible
30 Jan 8.3 04:51:43 14° N 04:54:55 23° NNE 04:59:51 10° E visible
30 Jan 7.6 19:31:42 10° W 19:36:11 28° NNW 19:38:03 21° N visible
